Time,TemperatureF,DewpointF,PressureIn,WindDirection,WindDirectionDegrees,WindSpeedMPH,WindSpeedGustMPH,Humidity,HourlyPrecipIn,Conditions,Clouds,dailyrainin,SoftwareType,DateUTC
2013-01-19 08:39:00,44.4,35.2,29.71,ESE,111,2.0,3.0,70,0.00,CLR,,0.00,WeatherDisplay:10.37,2013-01-19 07:39:00,
2013-01-19 08:50:00,44.7,35.5,29.71,ESE,113,2.0,4.0,70,0.00,CLR,,0.00,WeatherDisplay:10.37,2013-01-19 07:50:00,
2013-01-19 09:00:00,44.8,36.0,29.71,ESE,112,2.0,4.0,71,0.00,CLR,,0.00,WeatherDisplay:10.37,2013-01-19 08:00:00,
2013-01-19 09:10:00,45.6,36.7,29.71,East,98,2.0,5.0,71,0.00,CLR,,0.00,WeatherDisplay:10.37,2013-01-19 08:10:00,
2013-01-19 09:20:00,45.9,36.7,29.71,ESE,109,3.0,6.0,70,0.00,CLR,,0.00,WeatherDisplay:10.37,2013-01-19 08:20:00,
2013-01-19 09:30:00,46.1,36.5,29.72,ESE,113,2.0,5.0,69,0.00,CLR,,0.00,WeatherDisplay:10.37,2013-01-19 08:30:00,
2013-01-19 09:40:00,46.2,37.0,29.72,ESE,110,2.0,5.0,70,0.00,CLR,,0.00,WeatherDisplay:10.37,2013-01-19 08:40:00,
2013-01-19 09:50:00,46.3,36.3,29.72,ESE,111,5.0,8.0,68,0.00,CLR,,0.00,WeatherDisplay:10.37,2013-01-19 08:50:00,
2013-01-19 10:00:00,46.4,36.1,29.72,ESE,110,2.0,6.0,67,0.00,CLR,,0.00,WeatherDisplay:10.37,2013-01-19 09:00:00,
2013-01-19 10:10:00,46.6,35.8,29.72,ESE,104,5.0,6.0,66,0.00,CLR,,0.00,WeatherDisplay:10.37,2013-01-19 09:10:00,
2013-01-19 10:20:00,46.6,35.8,29.72,ESE,105,2.0,7.0,66,0.00,CLR,,0.00,WeatherDisplay:10.37,2013-01-19 09:20:00,
2013-01-19 10:30:00,46.8,35.6,29.72,ESE,111,2.0,5.0,65,0.00,CLR,,0.00,WeatherDisplay:10.37,2013-01-19 09:30:00,
2013-01-19 10:40:00,46.9,35.4,29.73,ESE,103,2.0,4.0,64,0.00,CLR,,0.00,WeatherDisplay:10.37,2013-01-19 09:40:00,
2013-01-19 10:50:00,47.3,36.1,29.73,ESE,120,1.0,4.0,65,0.00,CLR,,0.00,WeatherDisplay:10.37,2013-01-19 09:50:00,
2013-01-19 11:00:00,47.5,36.3,29.73,ESE,110,2.0,5.0,65,0.00,CLR,,0.00,WeatherDisplay:10.37,2013-01-19 10:00:00,
2013-01-19 11:10:00,47.8,37.0,29.73,ESE,109,2.0,5.0,66,0.00,CLR,,0.00,WeatherDisplay:10.37,2013-01-19 10:10:00,
2013-01-19 11:20:00,48.1,37.3,29.73,ESE,120,3.0,5.0,66,0.00,CLR,,0.00,WeatherDisplay:10.37,2013-01-19 10:20:00,
2013-01-19 11:30:00,48.1,38.0,29.72,SE,137,3.0,5.0,68,0.00,CLR,,0.00,WeatherDisplay:10.37,2013-01-19 10:30:00,
2013-01-19 11:40:00,48.1,38.8,29.72,SE,145,2.0,7.0,70,0.00,CLR,,0.00,WeatherDisplay:10.37,2013-01-19 10:40:00,
2013-01-19 11:50:00,47.8,39.2,29.72,SE,131,2.0,5.0,72,0.00,CLR,,0.00,WeatherDisplay:10.37,2013-01-19 10:50:00,
2013-01-19 12:00:00,47.6,39.3,29.71,SE,129,3.0,6.0,73,0.00,CLR,,0.00,WeatherDisplay:10.37,2013-01-19 11:00:00,
2013-01-19 12:10:00,47.4,40.2,29.71,ESE,120,2.0,7.0,76,0.01,RA,,0.01,WeatherDisplay:10.37,2013-01-19 11:10:00,
2013-01-19 13:50:00,48.2,43.6,29.68,SSE,167,8.0,17.0,84,0.00,CLR,,0.01,WeatherDisplay:10.37,2013-01-19 12:50:00,
2013-01-19 14:00:00,48.2,43.9,29.68,SSE,161,9.0,17.0,85,0.00,CLR,,0.01,WeatherDisplay:10.37,2013-01-19 13:00:00,
2013-01-19 14:10:00,48.1,44.1,29.67,SSE,147,8.0,21.0,86,0.00,CLR,,0.01,WeatherDisplay:10.37,2013-01-19 13:10:00,
2013-01-19 14:20:00,48.4,44.1,29.67,SSE,154,7.0,16.0,85,0.00,CLR,,0.01,WeatherDisplay:10.37,2013-01-19 13:20:00,
2013-01-19 14:30:00,48.8,44.2,29.66,SE,131,12.0,25.0,84,0.00,CLR,,0.01,WeatherDisplay:10.37,2013-01-19 13:30:00,
2013-01-19 14:40:00,48.7,44.1,29.66,SE,136,9.0,18.0,84,0.00,CLR,,0.01,WeatherDisplay:10.37,2013-01-19 13:40:00,
2013-01-19 14:50:00,48.9,44.0,29.66,SSE,154,12.0,22.0,83,0.00,CLR,,0.01,WeatherDisplay:10.37,2013-01-19 13:50:00,
2013-01-19 15:00:00,48.8,44.2,29.66,SSE,158,12.0,23.0,84,0.00,CLR,,0.01,WeatherDisplay:10.37,2013-01-19 14:00:00,
2013-01-19 15:10:00,48.6,44.3,29.65,South,171,14.0,25.0,85,0.00,CLR,,0.01,WeatherDisplay:10.37,2013-01-19 14:10:00,
2013-01-19 15:30:00,48.1,45.0,29.65,SSE,153,12.0,23.0,89,0.01,RA,,0.02,WeatherDisplay:10.37,2013-01-19 14:30:00,
2013-01-19 15:40:00,47.6,45.1,29.65,SSE,168,14.0,28.0,91,0.00,RA,,0.02,WeatherDisplay:10.37,2013-01-19 14:40:00,
2013-01-19 15:50:00,48.0,45.5,29.65,SSE,168,12.0,24.0,91,0.00,RA,,0.02,WeatherDisplay:10.37,2013-01-19 14:50:00,
2013-01-19 16:00:00,48.3,44.6,29.65,SE,139,7.0,26.0,87,0.00,CLR,,0.02,WeatherDisplay:10.37,2013-01-19 15:00:00,
2013-01-19 16:10:00,48.3,44.9,29.65,SE,126,2.0,14.0,88,0.00,CLR,,0.02,WeatherDisplay:10.37,2013-01-19 15:10:00,
2013-01-19 16:20:00,48.2,45.4,29.65,SE,137,6.0,12.0,90,0.00,CLR,,0.02,WeatherDisplay:10.37,2013-01-19 15:20:00,
2013-01-19 16:30:00,48.3,45.2,29.65,SE,145,7.0,10.0,89,0.00,CLR,,0.02,WeatherDisplay:10.37,2013-01-19 15:30:00,
2013-01-19 16:40:00,48.1,45.0,29.65,SE,134,6.0,9.0,89,0.01,RA,,0.02,WeatherDisplay:10.37,2013-01-19 15:40:00,
2013-01-19 16:50:00,48.2,45.4,29.65,SSE,158,9.0,18.0,90,0.00,RA,,0.02,WeatherDisplay:10.37,2013-01-19 15:50:00,
2013-01-19 17:00:00,48.5,45.4,29.65,SSE,158,8.0,18.0,89,0.02,RA,,0.04,WeatherDisplay:10.37,2013-01-19 16:00:00,
2013-01-19 17:10:00,48.0,45.2,29.65,SE,132,5.0,12.0,90,0.00,RA,,0.04,WeatherDisplay:10.37,2013-01-19 16:10:00,
2013-01-19 17:20:00,47.7,45.2,29.65,SE,141,3.0,10.0,91,0.01,RA,,0.05,WeatherDisplay:10.37,2013-01-19 16:20:00,
2013-01-19 17:30:00,47.6,45.4,29.65,SSE,149,3.0,15.0,92,0.00,RA,,0.05,WeatherDisplay:10.37,2013-01-19 16:30:00,
2013-01-19 17:40:00,47.5,45.6,29.65,SE,126,3.0,7.0,93,0.01,RA,,0.06,WeatherDisplay:10.37,2013-01-19 16:40:00,
2013-01-19 17:50:00,47.6,45.7,29.66,SE,132,5.0,9.0,93,0.01,RA,,0.06,WeatherDisplay:10.37,2013-01-19 16:50:00,
2013-01-19 18:00:00,47.7,46.1,29.66,SSE,154,6.0,10.0,94,0.01,RA,,0.07,WeatherDisplay:10.37,2013-01-19 17:00:00,
2013-01-19 18:10:00,47.9,46.3,29.66,SSE,150,7.0,16.0,94,0.00,RA,,0.07,WeatherDisplay:10.37,2013-01-19 17:10:00,
2013-01-19 18:20:00,47.9,46.3,29.66,SE,138,6.0,12.0,94,0.01,RA,,0.08,WeatherDisplay:10.37,2013-01-19 17:20:00,
2013-01-19 18:30:00,48.0,46.0,29.66,SE,145,6.0,12.0,93,0.00,RA,,0.08,WeatherDisplay:10.37,2013-01-19 17:30:00,
2013-01-19 18:40:00,48.2,46.3,29.66,SE,135,7.0,13.0,93,0.01,RA,,0.09,WeatherDisplay:10.37,2013-01-19 17:40:00,
2013-01-19 18:50:00,48.3,46.4,29.67,SE,140,6.0,13.0,93,0.02,RA,,0.10,WeatherDisplay:10.37,2013-01-19 17:50:00,
2013-01-19 19:00:00,48.4,46.5,29.67,SE,138,9.0,18.0,93,0.00,RA,,0.10,WeatherDisplay:10.37,2013-01-19 18:00:00,
2013-01-19 19:10:00,48.8,47.1,29.67,SSE,164,9.0,21.0,94,0.00,RA,,0.10,WeatherDisplay:10.37,2013-01-19 18:10:00,
2013-01-19 19:20:00,49.3,47.1,29.67,SE,141,9.0,21.0,92,0.00,CLR,,0.10,WeatherDisplay:10.37,2013-01-19 18:20:00,
2013-01-19 19:30:00,49.3,46.8,29.67,SSE,150,6.0,28.0,91,0.00,CLR,,0.10,WeatherDisplay:10.37,2013-01-19 18:30:00,
2013-01-19 20:00:00,50.7,48.5,29.67,SSE,165,9.0,18.0,92,0.00,CLR,,0.10,WeatherDisplay:10.37,2013-01-19 19:00:00,
2013-01-19 20:20:00,51.0,48.7,29.66,SSE,157,14.0,22.0,92,0.00,CLR,,0.10,WeatherDisplay:10.37,2013-01-19 19:20:00,
2013-01-19 20:30:00,51.1,48.9,29.66,SSE,162,12.0,23.0,92,0.00,CLR,,0.10,WeatherDisplay:10.37,2013-01-19 19:30:00,
2013-01-19 20:59:00,51.9,49.6,29.66,SSE,161,13.0,24.0,92,0.00,CLR,,0.10,WeatherDisplay:10.37,2013-01-19 19:59:00,
2013-01-19 21:09:00,51.8,49.5,29.66,South,173,15.0,26.0,92,0.01,RA,,0.11,WeatherDisplay:10.37,2013-01-19 20:09:00,
2013-01-19 21:40:00,51.6,49.9,29.66,SSE,164,14.0,22.0,94,0.00,RA,,0.14,WeatherDisplay:10.37,2013-01-19 20:40:00,
2013-01-19 21:50:00,51.7,50.0,29.66,SE,141,10.0,22.0,94,0.01,RA,,0.15,WeatherDisplay:10.37,2013-01-19 20:50:00,
2013-01-19 22:20:00,52.2,50.3,29.66,SSE,147,13.0,22.0,93,0.00,CLR,,0.15,WeatherDisplay:10.37,2013-01-19 21:20:00,
2013-01-19 22:30:00,52.5,50.5,29.66,SSE,158,15.0,24.0,93,0.00,CLR,,0.15,WeatherDisplay:10.37,2013-01-19 21:30:00,
2013-01-19 22:40:00,52.7,50.7,29.66,SSE,158,12.0,18.0,93,0.00,CLR,,0.15,WeatherDisplay:10.37,2013-01-19 21:40:00,
2013-01-19 23:00:00,52.9,50.6,29.66,SSE,161,10.0,22.0,92,0.00,CLR,,0.15,WeatherDisplay:10.37,2013-01-19 22:00:00,
2013-01-19 23:20:00,53.5,50.9,29.65,SSE,163,9.0,23.0,91,0.00,CLR,,0.15,WeatherDisplay:10.37,2013-01-19 22:20:00,
2013-01-19 23:30:00,53.8,51.3,29.65,SSE,162,10.0,20.0,91,0.00,CLR,,0.15,WeatherDisplay:10.37,2013-01-19 22:30:00,